This is the latest recevied weather packets stored in our database for station/object N4MGC. If no packets are shown the sender has not sent any weather packets the latest 10 day(s).
| Time | Temp. | Humidity | Pressure | Rain* | Wind** | Luminosity | Snow |
|---|---|---|---|---|---|---|---|
| 1777857132 | 14.44° C | 77% | 1017.7 hPa | 0 mm | - | 0 W/m² | - |
| 1777856828 | 14.44° C | 77% | 1017.6 hPa | 0 mm | - | 0 W/m² | - |
| 1777856524 | 14.44° C | 76% | 1017.4 hPa | 0 mm | - | 0 W/m² | - |
| 1777856220 | 14.44° C | 74% | 1017.5 hPa | 0 mm | - | 0 W/m² | - |
| 1777855917 | 15° C | 72% | 1017.5 hPa | 0 mm | - | 0 W/m² | - |
| 1777855615 | 15° C | 71% | 1017.4 hPa | 0 mm | - | 0 W/m² | - |
| 1777855312 | 15.56° C | 69% | 1017.5 hPa | 0 mm | - | 0 W/m² | - |
| 1777855008 | 15.56° C | 68% | 1017.4 hPa | 0 mm | - | 0 W/m² | - |
| 1777854705 | 16.11° C | 68% | 1017.4 hPa | 0 mm | - | 2 W/m² | - |
| 1777854402 | 16.67° C | 66% | 1017.3 hPa | 0 mm | - | 4 W/m² | - |
| 1777854099 | 16.67° C | 65% | 1017.2 hPa | 0 mm | - | 6 W/m² | - |
| 1777853797 | 17.22° C | 64% | 1017.3 hPa | 0 mm | - | 9 W/m² | - |
| 1777853493 | 17.22° C | 63% | 1017.2 hPa | 0 mm | - | 12 W/m² | - |
| 1777853190 | 17.78° C | 61% | 1017.4 hPa | 0 mm | - | 14 W/m² | - |
| 1777852888 | 17.78° C | 61% | 1017.1 hPa | 0 mm | - | 16 W/m² | - |
| 1777852586 | 18.33° C | 60% | 1017.4 hPa | 0 mm | - | 19 W/m² | - |
| 1777852282 | 18.89° C | 56% | 1017.2 hPa | 0 mm | - | 22 W/m² | - |
| 1777851981 | 19.44° C | 52% | 1017.1 hPa | 0 mm | - | 23 W/m² | - |
| 1777851678 | 19.44° C | 53% | 1017.4 hPa | 0 mm | - | 26 W/m² | - |
| 1777851375 | 19.44° C | 51% | 1017.3 hPa | 0 mm | - | 28 W/m² | - |
| 1777851070 | 20° C | 49% | 1017.6 hPa | 0 mm | - | 31 W/m² | - |
| 1777850768 | 20.56° C | 45% | 1017.3 hPa | 0 mm | - | 32 W/m² | - |
| 1777850465 | 20.56° C | 40% | 1017.6 hPa | 0 mm | - | 34 W/m² | - |
| 1777850163 | 20.56° C | 45% | 1017.4 hPa | 0 mm | - | 36 W/m² | - |
| 1777849859 | 20.56° C | 43% | 1017.4 hPa | 0 mm | - | 42 W/m² | - |
* Rain latest hour (hover to see other rain measurements)
** Current wind speed in m/s (hover to see current wind gust speed)